FW3237 Weather Reports


Display with metric or nautical units.
time (UTC)temp
F
wind
direction
speed
MPH
gust
MPH
rain 1hr
in
rain 24hr
in
rain mn
in
humidity
%
barometer
mb
20190422075704 65 57 0.0 2.0 0.00 0.00 0.00 22 1008.5
20190422075205 65 57 0.0 3.0 0.00 0.00 0.00 22 1008.4
20190422074704 65 59 0.0 3.0 0.00 0.00 0.00 22 1008.3
20190422074204 66 45 0.0 3.0 0.00 0.00 0.00 22 1008.4
20190422073705 66 45 0.0 2.0 0.00 0.00 0.00 20 1008.4
20190422073204 64 214 0.0 3.0 0.00 0.00 0.00 22 1008.5
20190422072705 64 214 0.0 3.0 0.00 0.00 0.00 23 1008.4
20190422072205 65 214 0.0 2.0 0.00 0.00 0.00 22 1008.4
20190422071704 65 197 0.0 3.0 0.00 0.00 0.00 22 1008.5
20190422071204 66 197 0.0 7.0 0.00 0.00 0.00 21 1008.5
20190422070705 67 197 0.0 7.0 0.00 0.00 0.00 20 1008.5
20190422070205 67 197 1.0 8.0 0.00 0.00 0.00 22 1008.5
20190422065704 66 49 2.0 8.0 0.00 0.00 0.00 21 1008.5
20190422065205 64 191 2.0 8.0 0.00 0.00 0.00 23 1008.5
20190422064704 62 196 1.0 4.0 0.00 0.00 0.00 23 1008.5
20190422064204 63 212 0.0 2.0 0.00 0.00 0.00 23 1008.6
20190422063704 64 212 0.0 2.0 0.00 0.00 0.00 23 1008.4
20190422063205 64 212 0.0 2.0 0.00 0.00 0.00 23 1008.4
20190422062704 64 212 0.0 2.0 0.00 0.00 0.00 23 1008.3
20190422062205 63 212 0.0 2.0 0.00 0.00 0.00 24 1008.3
20190422061705 64 212 1.0 2.0 0.00 0.00 0.00 24 1008.3
20190422061205 65 212 1.0 2.0 0.00 0.00 0.00 23 1008.3
20190422060705 66 212 1.0 2.0 0.00 0.00 0.00 22 1008.3
20190422060204 66 212 1.0 2.0 0.00 0.00 0.00 22 1008.3
20190422055705 66 212 0.0 2.0 0.00 0.00 0.00 23 1008.2
20190422055205 65 212 0.0 2.0 0.00 0.00 0.00 22 1008.2
20190422054704 64 212 0.0 2.0 0.00 0.00 0.00 23 1008.2
20190422054204 64 212 0.0 2.0 0.00 0.00 0.00 24 1008.3
20190422053705 65 212 0.0 2.0 0.00 0.00 0.00 25 1008.1
20190422053205 65 178 0.0 1.0 0.00 0.00 0.00 27 1008.2
20190422052704 66 178 0.0 1.0 0.00 0.00 0.00 26 1008.1
20190422052205 66 178 0.0 0.0 0.00 0.00 0.00 24 1008.1
20190422051704 65 178 0.0 0.0 0.00 0.00 0.00 24 1008.1
20190422051205 64 178 0.0 0.0 0.00 0.00 0.00 25 1008.1
20190422050705 65 178 0.0 0.0 0.00 0.00 0.00 25 1008.1
20190422050204 65 178 0.0 0.0 0.00 0.00 0.00 25 1008.0
20190422045705 65 178 0.0 1.0 0.00 0.00 0.00 25 1008.1
20190422045205 65 178 0.0 1.0 0.00 0.00 0.00 24 1008.1
20190422044704 67 178 0.0 1.0 0.00 0.00 0.00 24 1008.0
20190422044204 67 178 0.0 2.0 0.00 0.00 0.00 23 1008.0
20190422043705 66 178 0.0 2.0 0.00 0.00 0.00 24 1007.9
20190422043204 66 178 0.0 2.0 0.00 0.00 0.00 23 1007.8
20190422042704 67 178 0.0 2.0 0.00 0.00 0.00 24 1007.7
20190422042204 68 178 0.0 2.0 0.00 0.00 0.00 23 1007.6
20190422041704 69 178 0.0 2.0 0.00 0.00 0.00 22 1007.6
20190422041204 69 178 0.0 1.0 0.00 0.00 0.00 22 1007.5
20190422040704 69 178 0.0 0.0 0.00 0.00 0.00 22 1007.5
20190422040205 69 105 0.0 0.0 0.00 0.00 0.00 23 1007.4
20190422035705 69 86 0.0 0.0 0.00 0.00 0.00 23 1007.3
20190422035205 70 86 0.0 0.0 0.00 0.00 0.00 23 1007.3
20190422034705 69 86 0.0 0.0 0.00 0.00 0.00 24 1007.3
20190422034205 69 86 0.0 0.0 0.00 0.00 0.00 24 1007.2
20190422033705 69 86 0.0 0.0 0.00 0.00 0.00 23 1007.2
20190422033206 70 86 0.0 0.0 0.00 0.00 0.00 24 1007.1
20190422032705 69 86 0.0 0.0 0.00 0.00 0.00 24 1007.2
20190422032204 69 86 0.0 0.0 0.00 0.00 0.00 23 1007.0
20190422031705 70 86 0.0 0.0 0.00 0.00 0.00 23 1007.0
20190422031205 70 86 0.0 0.0 0.00 0.00 0.00 23 1007.0
20190422030704 70 86 0.0 0.0 0.00 0.00 0.00 22 1006.9
20190422030205 70 86 0.0 0.0 0.00 0.00 0.00 21 1006.8
20190422025704 71 86 0.0 0.0 0.00 0.00 0.00 22 1006.8
20190422025205 73 86 0.0 0.0 0.00 0.00 0.00 21 1006.6
20190422024710 73 86 0.0 1.0 0.00 0.00 0.00 20 1006.5
20190422024204 74 86 0.0 2.0 0.00 0.00 0.00 20 1006.3
20190422023704 75 86 0.0 2.0 0.00 0.00 0.00 18 1006.3
20190422023205 76 86 0.0 4.0 0.00 0.00 0.00 18 1006.3
20190422022704 76 86 0.0 4.0 0.00 0.00 0.00 17 1006.3
20190422022204 77 72 0.0 4.0 0.00 0.00 0.00 17 1006.2
20190422021705 77 68 0.0 4.0 0.00 0.00 0.00 17 1006.2
20190422021204 78 99 0.0 4.0 0.00 0.00 0.00 16 1006.2
20190422020704 78 80 1.0 4.0 0.00 0.00 0.00 16 1006.2
20190422020205 79 61 2.0 7.0 0.00 0.00 0.00 14 1006.1
20190422015704 79 69 2.0 7.0 0.00 0.00 0.00 15 1006.1
20190422015204 79 69 2.0 7.0 0.00 0.00 0.00 14 1006.1
20190422014704 80 75 3.0 12.0 0.00 0.00 0.00 14 1006.1
20190422014204 80 59 3.0 12.0 0.00 0.00 0.00 15 1006.1
20190422013705 80 63 3.0 12.0 0.00 0.00 0.00 15 1006.2
20190422013204 80 84 3.0 9.0 0.00 0.00 0.00 14 1006.1
20190422012705 80 59 3.0 11.0 0.00 0.00 0.00 15 1006.2
20190422012204 81 66 3.0 11.0 0.00 0.00 0.00 14 1006.2
20190422011704 81 44 5.0 12.0 0.00 0.00 0.00 14 1006.2
20190422011205 81 85 5.0 12.0 0.00 0.00 0.00 13 1006.2
20190422010705 81 61 5.0 11.0 0.00 0.00 0.00 13 1006.2
20190422010205 82 59 5.0 11.0 0.00 0.00 0.00 15 1006.2
20190422005704 82 85 5.0 11.0 0.00 0.00 0.00 14 1006.2
20190422005205 82 74 4.0 11.0 0.00 0.00 0.00 14 1006.3
20190422004705 82 47 4.0 10.0 0.00 0.00 0.00 17 1006.2
20190422004204 82 85 4.0 10.0 0.00 0.00 0.00 16 1006.2
20190422003704 82 43 4.0 10.0 0.00 0.00 0.00 15 1006.3
20190422003205 83 53 4.0 12.0 0.00 0.00 0.00 14 1006.2
20190422002704 83 55 5.0 12.0 0.00 0.00 0.00 14 1006.3
20190422002204 83 90 5.0 13.0 0.00 0.00 0.00 14 1006.5
20190422001705 83 39 5.0 13.0 0.00 0.00 0.00 16 1006.3
20190422001204 83 51 6.0 14.0 0.00 0.00 0.00 16 1006.5
20190422000705 83 43 7.0 14.0 0.00 0.00 0.00 14 1006.5
20190422000204 83 59 7.0 14.0 0.00 0.00 0.00 15 1006.5
20190421235705 83 30 6.0 14.0 0.00 0.00 0.00 14 1006.5
20190421235204 84 80 5.0 12.0 0.00 0.00 0.00 14 1006.5
20190421234704 84 62 5.0 12.0 0.00 0.00 0.00 13 1006.5
20190421234204 84 57 6.0 12.0 0.00 0.00 0.00 13 1006.5
20190421233705 84 60 6.0 13.0 0.00 0.00 0.00 13 1006.5
20190421233205 85 84 5.0 14.0 0.00 0.00 0.00 13 1006.5
20190421232704 86 63 5.0 15.0 0.00 0.00 0.00 13 1006.5
20190421232204 85 32 6.0 15.0 0.00 0.00 0.00 14 1006.5
20190421231704 85 88 6.0 12.0 0.00 0.00 0.00 15 1006.5
20190421231204 85 89 4.0 11.0 0.00 0.00 0.00 16 1006.5
20190421230705 85 76 3.0 10.0 0.00 0.00 0.00 17 1006.6
20190421230205 86 62 4.0 10.0 0.00 0.00 0.00 16 1006.7
20190421225705 85 110 4.0 15.0 0.00 0.00 0.00 16 1006.5
20190421225205 84 41 6.0 15.0 0.00 0.00 0.00 17 1006.6
20190421224705 84 46 8.0 15.0 0.00 0.00 0.00 17 1006.7
20190421224205 84 12 7.0 13.0 0.00 0.00 0.00 17 1006.8
20190421223705 84 57 5.0 15.0 0.00 0.00 0.00 17 1006.7
20190421223205 85 49 6.0 18.0 0.00 0.00 0.00 18 1006.8
20190421222705 85 114 8.0 18.0 0.00 0.00 0.00 18 1006.9
20190421222204 85 70 8.0 18.0 0.00 0.00 0.00 16 1007.0
20190421221704 84 34 7.0 15.0 0.00 0.00 0.00 16 1006.9
20190421221205 85 51 7.0 13.0 0.00 0.00 0.00 16 1007.0
20190421220705 85 50 6.0 13.0 0.00 0.00 0.00 17 1007.1
20190421220205 85 105 5.0 12.0 0.00 0.00 0.00 18 1007.1
20190421215704 86 116 5.0 13.0 0.00 0.00 0.00 17 1007.2
20190421215206 85 101 6.0 15.0 0.00 0.00 0.00 19 1007.3
20190421214704 83 39 7.0 17.0 0.00 0.00 0.00 18 1007.5
20190421214204 85 31 7.0 17.0 0.00 0.00 0.00 18 1007.7
20190421213705 86 59 6.0 17.0 0.00 0.00 0.00 18 1007.7
20190421213204 86 30 5.0 14.0 0.00 0.00 0.00 18 1007.8
20190421212704 85 28 6.0 14.0 0.00 0.00 0.00 17 1007.8
20190421212205 86 81 5.0 12.0 0.00 0.00 0.00 17 1008.0
20190421211704 85 49 5.0 15.0 0.00 0.00 0.00 18 1007.9
20190421211204 84 68 7.0 15.0 0.00 0.00 0.00 18 1008.1
20190421210705 84 72 7.0 15.0 0.00 0.00 0.00 17 1008.1
20190421210205 85 26 6.0 11.0 0.00 0.00 0.00 16 1008.1
20190421205705 85 80 5.0 11.0 0.00 0.00 0.00 18 1008.1
20190421205205 84 79 5.0 13.0 0.00 0.00 0.00 18 1008.2
20190421204705 84 93 6.0 14.0 0.00 0.00 0.00 19 1008.4
20190421204204 85 41 6.0 14.0 0.00 0.00 0.00 18 1008.4
20190421203705 84 120 6.0 14.0 0.00 0.00 0.00 18 1008.3
20190421203204 83 27 7.0 13.0 0.00 0.00 0.00 18 1008.4
20190421202705 84 64 5.0 15.0 0.00 0.00 0.00 17 1008.5
20190421202205 83 28 6.0 15.0 0.00 0.00 0.00 19 1008.5
20190421201705 83 71 7.0 15.0 0.00 0.00 0.00 17 1008.5
20190421201205 85 47 7.0 13.0 0.00 0.00 0.00 17 1008.6
20190421200704 83 62 6.0 14.0 0.00 0.00 0.00 17 1008.5
20190421200205 84 46 6.0 14.0 0.00 0.00 0.00 17 1008.6
20190421195704 83 66 7.0 14.0 0.00 0.00 0.00 17 1008.6
20190421195205 83 39 6.0 14.0 0.00 0.00 0.00 17 1008.5
20190421194704 83 34 5.0 12.0 0.00 0.00 0.00 17 1008.5
20190421194204 82 59 6.0 12.0 0.00 0.00 0.00 17 1008.6
20190421193704 83 59 5.0 12.0 0.00 0.00 0.00 18 1008.6
20190421193204 83 61 5.0 14.0 0.00 0.00 0.00 18 1008.6
20190421192705 83 58 5.0 14.0 0.00 0.00 0.00 20 1008.7
20190421192206 82 51 5.0 12.0 0.00 0.00 0.00 20 1008.7
20190421191704 82 71 5.0 14.0 0.00 0.00 0.00 22 1009.0
20190421191204 82 67 6.0 14.0 0.00 0.00 0.00 23 1009.1
20190421190704 82 73 5.0 14.0 0.00 0.00 0.00 21 1009.1
20190421190204 80 77 4.0 13.0 0.00 0.00 0.00 26 1009.1
20190421185704 81 49 5.0 13.0 0.00 0.00 0.00 26 1009.2
20190421185204 81 72 5.0 11.0 0.00 0.00 0.00 27 1009.1
20190421184704 81 57 6.0 11.0 0.00 0.00 0.00 24 1009.2
20190421184205 81 34 3.0 8.0 0.00 0.00 0.00 25 1009.3
20190421183704 80 55 3.0 8.0 0.00 0.00 0.00 33 1009.2
20190421183205 81 39 3.0 7.0 0.00 0.00 0.00 26 1009.4
20190421182705 80 313 3.0 9.0 0.00 0.00 0.00 26 1009.4
20190421182205 81 31 3.0 9.0 0.00 0.00 0.00 27 1009.5
20190421181705 80 65 3.0 12.0 0.00 0.00 0.00 28 1009.4
20190421181205 80 49 2.0 14.0 0.00 0.00 0.00 28 1009.5
20190421180705 80 62 4.0 14.0 0.00 0.00 0.00 28 1009.6
20190421180206 79 62 4.0 9.0 0.00 0.00 0.00 28 1009.7
20190421175705 79 30 4.0 10.0 0.00 0.00 0.00 29 1009.7
20190421175204 79 34 4.0 11.0 0.00 0.00 0.00 29 1009.6
20190421174704 79 20 4.0 12.0 0.00 0.00 0.00 27 1009.7
20190421174205 78 58 5.0 12.0 0.00 0.00 0.00 28 1009.9
20190421173704 78 30 4.0 12.0 0.00 0.00 0.00 29 1009.9
20190421173205 78 101 2.0 9.0 0.00 0.00 0.00 29 1009.9
20190421172704 77 35 3.0 9.0 0.00 0.00 0.00 30 1009.9
20190421172204 78 35 3.0 9.0 0.00 0.00 0.00 30 1009.9
20190421171704 77 110 3.0 9.0 0.00 0.00 0.00 34 1009.8
20190421171204 77 65 3.0 9.0 0.00 0.00 0.00 31 1009.9
20190421170705 77 33 3.0 9.0 0.00 0.00 0.00 30 1009.9
20190421170205 76 81 3.0 9.0 0.00 0.00 0.00 31 1010.0
20190421165704 77 59 2.0 8.0 0.00 0.00 0.00 33 1009.9
20190421165205 77 57 3.0 7.0 0.00 0.00 0.00 32 1009.9
20190421164704 76 46 2.0 6.0 0.00 0.00 0.00 32 1009.8
20190421164204 76 8 2.0 8.0 0.00 0.00 0.00 31 1009.8
20190421163704 76 76 2.0 8.0 0.00 0.00 0.00 34 1009.7
20190421163205 76 94 3.0 8.0 0.00 0.00 0.00 35 1009.8
20190421162705 76 54 3.0 8.0 0.00 0.00 0.00 33 1009.6
20190421162205 75 58 2.0 7.0 0.00 0.00 0.00 33 1009.7
20190421161704 75 132 2.0 7.0 0.00 0.00 0.00 34 1009.7
20190421161204 75 66 2.0 6.0 0.00 0.00 0.00 32 1009.7
20190421160705 76 99 1.0 5.0 0.00 0.00 0.00 31 1009.6
20190421160205 74 322 1.0 6.0 0.00 0.00 0.00 31 1009.6
20190421155705 74 28 2.0 6.0 0.00 0.00 0.00 33 1009.6
20190421155205 74 66 2.0 6.0 0.00 0.00 0.00 32 1009.6
20190421154704 74 41 1.0 3.0 0.00 0.00 0.00 33 1009.7
20190421154205 74 32 1.0 4.0 0.00 0.00 0.00 33 1009.6
20190421153704 74 51 0.0 4.0 0.00 0.00 0.00 32 1009.5
20190421153204 74 28 1.0 4.0 0.00 0.00 0.00 33 1009.5
20190421152704 74 299 1.0 3.0 0.00 0.00 0.00 32 1009.5
20190421152205 73 0 1.0 5.0 0.00 0.00 0.00 33 1009.5
20190421151705 72 5 1.0 5.0 0.00 0.00 0.00 32 1009.6
20190421151204 73 53 2.0 5.0 0.00 0.00 0.00 33 1009.5
20190421150704 73 71 1.0 4.0 0.00 0.00 0.00 34 1009.5
20190421150204 72 43 1.0 4.0 0.00 0.00 0.00 35 1009.4
20190421145704 71 314 1.0 5.0 0.00 0.00 0.00 35 1009.5
20190421145205 71 3 2.0 5.0 0.00 0.00 0.00 34 1009.4
20190421144705 71 24 1.0 5.0 0.00 0.00 0.00 35 1009.5
20190421144204 71 39 1.0 4.0 0.00 0.00 0.00 35 1009.5
20190421143705 71 62 1.0 4.0 0.00 0.00 0.00 35 1009.5
20190421143204 71 7 1.0 3.0 0.00 0.00 0.00 35 1009.4
20190421142704 70 22 1.0 3.0 0.00 0.00 0.00 35 1009.3
20190421142205 70 39 0.0 4.0 0.00 0.00 0.00 36 1009.2
20190421141704 70 2 1.0 4.0 0.00 0.00 0.00 37 1009.1
20190421141205 69 317 2.0 5.0 0.00 0.00 0.00 36 1009.1
20190421140705 69 290 2.0 5.0 0.00 0.00 0.00 36 1009.1
20190421140204 69 334 2.0 5.0 0.00 0.00 0.00 36 1009.1
20190421135704 69 331 2.0 4.0 0.00 0.00 0.00 37 1009.1
20190421135204 68 307 1.0 4.0 0.00 0.00 0.00 38 1009.1
20190421134705 66 283 1.0 3.0 0.00 0.00 0.00 39 1009.1
20190421134204 66 330 0.0 3.0 0.00 0.00 0.00 40 1008.9
20190421133704 66 270 0.0 3.0 0.00 0.00 0.00 39 1008.7
20190421133205 66 331 0.0 3.0 0.00 0.00 0.00 39 1008.6
20190421132704 66 301 0.0 2.0 0.00 0.00 0.00 39 1008.7
20190421132204 65 336 0.0 2.0 0.00 0.00 0.00 39 1008.6
20190421131704 66 307 0.0 3.0 0.00 0.00 0.00 39 1008.6
20190421131205 66 297 0.0 4.0 0.00 0.00 0.00 38 1008.4
20190421130704 66 305 0.0 4.0 0.00 0.00 0.00 38 1008.3
20190421130204 65 326 1.0 4.0 0.00 0.00 0.00 40 1008.1
20190421125704 65 267 1.0 3.0 0.00 0.00 0.00 39 1008.1
20190421125205 65 283 1.0 3.0 0.00 0.00 0.00 39 1008.0
20190421124705 65 309 1.0 3.0 0.00 0.00 0.00 39 1008.0
20190421124205 65 269 1.0 3.0 0.00 0.00 0.00 39 1008.1
20190421123704 65 281 1.0 3.0 0.00 0.00 0.00 39 1008.1
20190421123204 65 277 1.0 4.0 0.00 0.00 0.00 40 1008.1
20190421122704 67 280 1.0 4.0 0.00 0.00 0.00 37 1008.0
20190421122205 67 290 1.0 4.0 0.00 0.00 0.00 38 1008.0
20190421121704 67 277 2.0 4.0 0.00 0.00 0.00 39 1008.0
20190421121205 66 291 1.0 4.0 0.00 0.00 0.00 39 1008.1
20190421120704 65 300 1.0 4.0 0.00 0.00 0.00 41 1008.0
20190421120206 65 97 0.0 4.0 0.00 0.00 0.00 43 1008.0
20190421115704 65 133 1.0 4.0 0.00 0.00 0.00 44 1008.0
20190421115205 66 269 2.0 7.0 0.00 0.00 0.00 40 1007.9
20190421114705 67 293 2.0 7.0 0.00 0.00 0.00 38 1008.1
20190421114204 67 286 2.0 7.0 0.00 0.00 0.00 39 1008.0
20190421113704 67 274 1.0 5.0 0.00 0.00 0.00 38 1007.9
20190421113205 68 315 1.0 5.0 0.00 0.00 0.00 37 1007.9
20190421112705 68 319 1.0 5.0 0.00 0.00 0.00 37 1007.9
20190421112204 68 326 1.0 5.0 0.00 0.00 0.00 37 1007.8
20190421111704 69 317 2.0 5.0 0.00 0.00 0.00 36 1007.8
20190421111204 69 294 2.0 5.0 0.00 0.00 0.00 36 1007.9
20190421110705 68 309 2.0 5.0 0.00 0.00 0.00 36 1007.8
20190421110204 69 317 2.0 5.0 0.00 0.00 0.00 35 1007.7
20190421105704 69 278 2.0 4.0 0.00 0.00 0.00 35 1007.7
20190421105204 69 292 1.0 3.0 0.00 0.00 0.00 35 1007.7
20190421104704 69 291 1.0 4.0 0.00 0.00 0.00 35 1007.6
20190421104205 69 304 1.0 4.0 0.00 0.00 0.00 34 1007.3
20190421103704 69 307 1.0 4.0 0.00 0.00 0.00 34 1007.2
20190421103205 69 7 1.0 4.0 0.00 0.00 0.00 34 1007.0
20190421102704 69 329 1.0 5.0 0.00 0.00 0.00 34 1006.9
20190421102204 69 320 1.0 6.0 0.00 0.00 0.00 34 1007.0
20190421101704 69 7 2.0 6.0 0.00 0.00 0.00 34 1006.9
20190421101205 69 296 2.0 6.0 0.00 0.00 0.00 34 1006.8
20190421100705 69 7 2.0 5.0 0.00 0.00 0.00 33 1006.9
20190421100204 69 1 1.0 5.0 0.00 0.00 0.00 33 1006.8
20190421095704 69 7 1.0 4.0 0.00 0.00 0.00 33 1006.9
20190421095204 69 12 1.0 3.0 0.00 0.00 0.00 33 1006.9
20190421094705 69 16 1.0 5.0 0.00 0.00 0.00 32 1006.9
20190421094205 70 18 1.0 5.0 0.00 0.00 0.00 32 1006.9
20190421093704 70 2 1.0 5.0 0.00 0.00 0.00 32 1006.9
20190421093204 70 12 1.0 4.0 0.00 0.00 0.00 31 1006.9
20190421092704 70 324 1.0 4.0 0.00 0.00 0.00 31 1006.9
20190421092205 70 7 1.0 4.0 0.00 0.00 0.00 31 1007.0
20190421091705 70 331 1.0 5.0 0.00 0.00 0.00 31 1007.1
20190421091205 71 307 1.0 5.0 0.00 0.00 0.00 31 1007.1
20190421090705 71 17 2.0 5.0 0.00 0.00 0.00 31 1007.0
20190421085705 71 57 1.0 4.0 0.00 0.00 0.00 31 1007.0
20190421085205 71 32 1.0 8.0 0.00 0.00 0.00 31 1007.0
20190421084704 71 52 2.0 8.0 0.00 0.00 0.00 30 1007.0
20190421084205 72 53 3.0 10.0 0.00 0.00 0.00 29 1007.0
20190421083704 72 53 4.0 10.0 0.00 0.00 0.00 29 1007.0
20190421083205 73 58 4.0 10.0 0.00 0.00 0.00 29 1007.0
20190421082705 73 47 4.0 13.0 0.00 0.00 0.00 29 1007.0
20190421082205 73 62 4.0 13.0 0.00 0.00 0.00 28 1007.0
20190421081704 73 48 5.0 12.0 0.00 0.00 0.00 28 1007.0
20190421081205 74 57 5.0 12.0 0.00 0.00 0.00 27 1006.9
20190421080704 74 73 5.0 12.0 0.00 0.00 0.00 27 1006.9
20190421080205 74 30 4.0 13.0 0.00 0.00 0.00 27 1006.9